Weather History for El Dorado, AR

Change the Weather History Date:

Monday, November 19, 2012

  Actual Average Record
Temperature  
Mean Temperature 55 °F 53 °F  
Max Temperature 70 °F 64 °F 82 °F (1930)
Min Temperature 39 °F 41 °F 17 °F (1951)
Degree Days  
Heating Degree Days 10 13  
Month to date heating degree days 214 187  
Since 1 July heating degree days 381 320  
Cooling Degree Days 0 0  
Month to date cooling degree days 5 13  
Year to date cooling degree days 2276 2124  
Growing Degree Days 4 (Base 50)    
Moisture  
Dew Point 43 °F    
Average Humidity 62    
Maximum Humidity 92    
Minimum Humidity 31    
Precipitation  
Precipitation 0.00 in 0.18 in 2.09 in (1983)
Month to date precipitation 1.64 2.94  
Year to date precipitation 38.33 45.79  
Snow  
Snow 0.00 in - - ()
Month to date snowfall 0.0  
Since 1 July snowfall 0.0  
Since 1 September snowfall 0.0  
Snow Depth 0.00 in    
Sea Level Pressure  
Sea Level Pressure 30.25 in    
Wind  
Wind Speed 1 mph (SSW)    
Max Wind Speed 8 mph    
Max Gust Speed 12 mph    
Visibility 10 miles    
Events      
T = Trace of Precipitation, MM = Missing Value Source: NWS Daily Summary

Daily Weather History Graph

Daily Weather History Graph

Search for Another Location

Airport:

Trip Planner

Search our weather history database for the weather conditions in past years. The results will help you decide how hot, cold, wet, or windy it might be!

Date:

Astronomy

Nov. 19, 2012 Rise Set
Actual Time 6:46 AM CST 5:06 PM CST
Civil Twilight 6:19 AM CST 5:33 PM CST
Nautical Twilight 5:49 AM CST 6:03 PM CST
Astronomical Twilight 5:20 AM CST 6:33 PM CST
Moon 11:56 AM CST (11/19) 11:26 PM CST (11/19)
Length of Visible Light 11h 13m
Length of Day
10h 20m
Waxing Crescent, 41% of the Moon is Illuminated
Nov 19
Waxing Crescent
Nov 20
First Quarter
Nov 28
Full
Dec 6
Last Quarter
Dec 13
New

Hourly Weather History & Observations

Time (CST) Temp. Dew Point Humidity Pressure Visibility Wind Dir Wind Speed Gust Speed Precip Events Conditions
12:53 AM 39.9 °F 37.0 °F 89% 30.29 in 10.0 mi Calm Calm - N/A   Clear
1:53 AM 39.9 °F 37.0 °F 89% 30.28 in 10.0 mi Calm Calm - N/A   Clear
2:53 AM 42.1 °F 39.0 °F 89% 30.29 in 10.0 mi Calm Calm - N/A   Clear
3:53 AM 44.1 °F 41.0 °F 89% 30.27 in 10.0 mi Calm Calm - N/A   Clear
4:53 AM 43.0 °F 39.9 °F 89% 30.27 in 10.0 mi Calm Calm - N/A   Clear
5:53 AM 44.1 °F 41.0 °F 89% 30.28 in 10.0 mi Calm Calm - N/A   Clear
6:53 AM 45.0 °F 42.1 °F 90% 30.29 in 10.0 mi Calm Calm - N/A   Overcast
7:53 AM 46.0 °F 42.1 °F 86% 30.30 in 9.0 mi Calm Calm - N/A   Partly Cloudy
8:53 AM 52.0 °F 42.1 °F 69% 30.31 in 10.0 mi South 4.6 mph - N/A   Clear
9:53 AM 59.0 °F 41.0 °F 51% 30.31 in 10.0 mi SSW 6.9 mph - N/A   Clear
10:53 AM 61.0 °F 42.1 °F 50% 30.31 in 10.0 mi Calm Calm - N/A   Scattered Clouds
11:53 AM 66.0 °F 39.9 °F 38% 30.27 in 10.0 mi Calm Calm - N/A   Clear
12:53 PM 68.0 °F 39.9 °F 36% 30.23 in 10.0 mi Calm Calm - N/A   Clear
1:53 PM 69.1 °F 39.9 °F 35% 30.21 in 10.0 mi Calm Calm - N/A   Clear
2:53 PM 69.1 °F 37.9 °F 32% 30.19 in 10.0 mi Calm Calm - N/A   Clear
3:53 PM 68.0 °F 42.1 °F 39% 30.20 in 10.0 mi Calm Calm - N/A   Overcast
4:53 PM 64.0 °F 48.0 °F 56% 30.19 in 10.0 mi Calm Calm - N/A   Overcast
5:53 PM 59.0 °F 48.9 °F 69% 30.21 in 10.0 mi Calm Calm - N/A   Overcast
6:53 PM 57.0 °F 48.9 °F 74% 30.21 in 10.0 mi Calm Calm - N/A   Mostly Cloudy
7:53 PM 54.0 °F 48.0 °F 80% 30.21 in 10.0 mi Calm Calm - N/A   Clear
8:53 PM 51.1 °F 46.9 °F 86% 30.21 in 10.0 mi Calm Calm - N/A   Clear
9:53 PM 52.0 °F 48.0 °F 86% 30.21 in 10.0 mi Calm Calm - N/A   Mostly Cloudy
10:53 PM 52.0 °F 48.9 °F 89% 30.21 in 10.0 mi Calm Calm - N/A   Overcast
11:53 PM 53.1 °F 48.9 °F 86% 30.19 in 10.0 mi Calm Calm - N/A   Overcast